Cloud_Cover
0 0 5 5 5 5 21 5 5 62 100 97 97 100 100 99 100 100 100 100 100 100 100 100 100 100 100
5 5 5 5 11 5 73 100 46 30 15 100 100 99 41 100 100 100 100 100 89 85 100 98 100 100 100
31 5 46 38 20 70 94 13 5 52 46 7 93 98 100 100 100 100 100 100 91 84 99 100 90 99 100
85 88 5 26 62 22 2 9 80 5 5 32 100 100 100 100 100 100 100 100 100 99 100 99 98 91 77
96 59 98 12 32 23 84 52 89 64 64 100 95 85 25 57 30 14 91 100 100 100 100 86 48 8 52
100 85 6 89 61 16 100 100 100 96 95 100 100 100 100 100 91 100 100 100 100 100 100 100 83 79 5
58 91 100 14 91 100 100 100 100 100 96 100 96 100 48 100 96 100 100 100 100 100 100 100 100 100 52
97 90 100 100 100 100 100 100 93 76 100 100 32 88 15 18 37 100 100 100 100 100 100 100 99 98 41
96 98 100 100 100 100 97 100 97 100 100 100 97 99 94 95 100 97 98 100 100 100 100 100 100 97 22
88 87 100 100 100 100 100 100 100 100 100 100 100 99 100 100 99 96 96 100 100 100 100 100 100 100 66
92 100 100 99 100 100 100 100 100 100 99 100 100 100 100 100 99 99 100 78 93 100 100 100 100 100 100
100 100 100 100 100 100 100 100 100 100 100 100 100 100 100 86 98 93 100 100 100 100 100 100 99 100 100
100 100 100 100 100 100 100 100 100 100 100 100 100 100 100 99 99 94 100 100 100 100 100 100 100 100 100
100 100 100 100 100 100 100 100 100 100 100 100 100 100 94 97 100 100 95 100 100 100 100 100 100 100 100
100 100 100 100 100 100 100 100 100 100 100 100 100 99 98 100 100 100 100 100 100 100 100 100 100 100 84
100 100 100 100 100 100 100 100 100 100 100 100 100 97 99 100 100 100 100 100 100 100 100 100 100 100 100
100 100 100 100 100 96 100 100 100 100 100 100 100 100 100 100 99 100 100 100 100 100 100 100 100 100 100